This demonstration page uses our WeatherBlox Daily Observations layout. Learn more.

Hourly Observations for March 14, 2017

Temp ( °F °C ) Dew Point ( °F °C ) Humidity (%) Winds ( mph kmh ) Pressure ( in mb ) Visibility ( mi km ) Precip ( " mm )
12:15 am 00:15 Cloudy 23 -4.8 12 -10.9 63 63 E 14 22 30.39 1029 10 16.0934 0 0
12:35 am 00:35 Cloudy 23 -5.1 13 -10.5 66 66 E 14 22 30.39 1029 10 16.0934 0 0
12:55 am 00:55 Cloudy 22 -5.5 14 -10.2 70 70 E 14 22 30.39 1029 10 16.0934 0 0
1:15 am 01:15 Cloudy 22 -5.6 15 -9.6 74 74 E 13 20 30.39 1029 10 16.0934 0 0
1:35 am 01:35 Cloudy 22 -5.8 15 -9.2 77 77 E 13 20 30.39 1029 10 16.0934 0 0
1:55 am 01:55 Cloudy 21 -6 15 -9.5 77 77 ESE 13 20 30.39 1029 10 16.0934 0 0
2:15 am 02:15 Cloudy 21 -6 16 -9.1 79 79 ESE 10 17 30.39 1029 10 16.0934 0 0
2:35 am 02:35 Cloudy 21 -6.1 15 -9.2 79 79 ESE 10 17 30.39 1029 10 16.0934 0 0
2:55 am 02:55 Cloudy 21 -6.1 16 -9 80 80 ESE 13 20 30.39 1029 10 16.0934 0 0
3:15 am 03:15 Cloudy 21 -6.2 16 -9.1 80 80 ESE 12 19 30.39 1029 10 16.0934 0 0
3:35 am 03:35 Cloudy 21 -6.2 16 -9 81 81 ESE 10 17 30.39 1029 10 16.0934 0 0
3:55 am 03:55 Cloudy 21 -6.3 16 -9 81 81 ESE 9 15 30.36 1028 10 16.0934 0 0
4:15 am 04:15 Cloudy 20 -6.4 16 -9.1 81 81 SE 10 17 30.36 1028 10 16.0934 0 0
4:35 am 04:35 Cloudy 20 -6.5 16 -9 83 83 SE 10 17 30.36 1028 10 16.0934 0 0
4:55 am 04:55 Cloudy 20 -6.5 16 -9 83 83 ESE 12 19 30.36 1028 10 16.0934 0 0
5:15 am 05:15 Cloudy 20 -6.5 16 -9 83 83 ESE 9 15 30.36 1028 10 16.0934 0 0
5:35 am 05:35 Cloudy 20 -6.6 16 -9 83 83 SE 10 17 30.36 1028 10 16.0934 0 0
5:55 am 05:55 Cloudy 20 -6.7 16 -9.1 83 83 ESE 12 19 30.36 1028 10 16.0934 0 0
6:15 am 06:15 Cloudy 20 -6.8 15 -9.2 83 83 SE 10 17 30.36 1028 10 16.0934 0 0
6:35 am 06:35 Cloudy 20 -6.7 16 -9 84 84 SE 12 19 30.36 1028 10 16.0934 0 0
6:55 am 06:55 Cloudy 20 -6.7 16 -9 84 84 SE 10 17 30.36 1028 10 16.0934 0 0
7:15 am 07:15 Cloudy 20 -6.8 16 -9 85 85 SE 9 15 30.39 1029 10 16.0934 0 0
7:35 am 07:35 Cloudy 20 -6.7 16 -8.8 85 85 SE 8 13 30.39 1029 10 16.0934 0 0
7:55 am 07:55 Cloudy 20 -6.6 17 -8.6 86 86 SE 7 11 30.39 1029 10 16.0934 0 0
8:15 am 08:15 Cloudy 20 -6.6 16 -8.8 85 85 ESE 10 17 30.39 1029 10 16.0934 0 0
8:35 am 08:35 Cloudy 20 -6.5 16 -8.8 84 84 ESE 9 15 30.39 1029 10 16.0934 0 0
8:55 am 08:55 Cloudy 21 -6.2 17 -8.6 83 83 ESE 10 17 30.39 1029 10 16.0934 0 0
9:15 am 09:15 Cloudy 21 -6.2 17 -8.6 83 83 SE 12 19 30.42 1030 10 16.0934 0 0
9:35 am 09:35 Cloudy 21 -6 16 -9 80 80 ESE 12 19 30.42 1030 10 16.0934 0 0
9:55 am 09:55 Cloudy 22 -5.7 16 -9.1 77 77 ESE 12 19 30.42 1030 10 16.0934 0 0
10:15 am 10:15 Cloudy 22 -5.3 16 -8.8 77 77 ESE 10 17 30.42 1030 10 16.0934 0 0
10:35 am 10:35 Cloudy 23 -4.9 17 -8.6 76 76 SE 12 19 30.42 1030 10 16.0934 0 0
10:55 am 10:55 Cloudy 24 -4.3 17 -8.3 74 74 SE 12 19 30.42 1030 10 16.0934 0 0
11:15 am 11:15 Cloudy 25 -3.8 17 -8.4 71 71 ESE 12 19 30.39 1029 10 16.0934 0 0
11:35 am 11:35 Cloudy 26 -3.2 16 -8.7 66 66 ESE 13 20 30.42 1030 10 16.0934 0 0
11:55 am 11:55 Cloudy 28 -2.1 17 -8.5 62 62 SE 13 20 30.39 1029 10 16.0934 0 0
12:15 pm 12:15 Cloudy 28 -2 17 -8.6 61 61 SE 12 19 30.39 1029 10 16.0934 0 0
12:35 pm 12:35 Cloudy 30 -1.2 17 -8.4 58 58 SE 13 20 30.36 1028 10 16.0934 0 0
12:55 pm 12:55 Cloudy 31 -0.4 17 -8.4 55 55 SE 10 17 30.36 1028 10 16.0934 0 0
1:15 pm 13:15 Cloudy 31 -0.4 17 -8.5 55 55 SE 7 11 30.39 1029 10 16.0934 0 0
1:35 pm 13:35 Cloudy 32 0 17 -8.4 54 54 SSE 7 11 30.39 1029 10 16.0934 0 0
1:55 pm 13:55 Cloudy 32 0.1 17 -8.3 54 54 SE 6 9 30.39 1029 10 16.0934 0 0
2:15 pm 14:15 Cloudy 33 0.5 17 -8.4 52 52 S 8 13 30.39 1029 10 16.0934 0 0
2:35 pm 14:35 Cloudy 33 0.6 17 -8.4 51 51 S 7 11 30.39 1029 10 16.0934 0 0
2:55 pm 14:55 Cloudy 34 1 17 -8.2 51 51 S 6 9 30.36 1028 10 16.0934 0 0
3:15 pm 15:15 Cloudy 34 1.2 17 -8.2 50 50 SSW 8 13 30.36 1028 10 16.0934 0 0
3:35 pm 15:35 Cloudy 34 1.3 17 -8.2 50 50 SE 5 7 30.36 1028 10 16.0934 0 0
3:55 pm 15:55 Cloudy 34 1.2 17 -8.2 50 50 S 5 7 30.36 1028 10 16.0934 0 0
4:15 pm 16:15 Cloudy 35 1.6 17 -8.2 49 49 SSE 7 11 30.36 1028 10 16.0934 0 0
4:35 pm 16:35 Cloudy 35 1.6 17 -8.1 49 49 E 3 6 30.36 1028 10 16.0934 0 0
4:55 pm 16:55 Cloudy 35 1.6 17 -8.1 49 49 S 5 7 30.36 1028 10 16.0934 0 0
5:15 pm 17:15 Cloudy 35 1.7 17 -8.1 49 49 SSE 6 9 30.36 1028 10 16.0934 0 0
5:35 pm 17:35 Cloudy 35 1.6 17 -8.1 49 49 SE 6 9 30.36 1028 10 16.0934 0 0
5:55 pm 17:55 Cloudy 35 1.6 17 -8.1 49 49 SE 5 7 30.39 1029 10 16.0934 0 0
6:15 pm 18:15 Cloudy 35 1.6 17 -8.1 49 49 ESE 8 13 30.39 1029 10 16.0934 0 0
6:35 pm 18:35 Cloudy 35 1.5 17 -8.1 49 49 ESE 8 13 30.39 1029 10 16.0934 0 0
6:55 pm 18:55 Cloudy 34 1.2 17 -8.1 50 50 ESE 8 13 30.39 1029 10 16.0934 0 0
7:15 pm 19:15 Partly Cloudy 32 0.2 17 -8.3 53 53 ESE 10 17 30.39 1029 10 16.0934 0 0
7:35 pm 19:35 Sunny 31 -0.8 18 -7.8 59 59 ESE 12 19 30.39 1029 10 16.0934 0 0
7:55 pm 19:55 Clear 28 -2 18 -7.9 64 64 ESE 10 17 30.42 1030 10 16.0934 0 0
8:15 pm 20:15 Clear 27 -2.6 18 -7.8 68 68 ESE 9 15 30.42 1030 10 16.0934 0 0
8:35 pm 20:35 Clear 26 -3.4 18 -7.7 72 72 E 9 15 30.45 1031 10 16.0934 0 0
8:55 pm 20:55 Clear 25 -3.7 19 -7.5 75 75 ESE 10 17 30.48 1032 10 16.0934 0 0
9:15 pm 21:15 Clear 25 -4 19 -7.3 78 78 ESE 12 19 30.48 1032 10 16.0934 0 0
9:35 pm 21:35 Clear 25 -4 19 -7.1 79 79 ESE 12 19 30.48 1032 10 16.0934 0 0
9:55 pm 21:55 Clear 25 -4 20 -6.7 82 82 ESE 13 20 30.48 1032 10 16.0934 0 0
10:15 pm 22:15 Clear 25 -4 20 -6.7 82 82 ESE 14 22 30.48 1032 10 16.0934 0 0
10:35 pm 22:35 Clear 25 -3.8 20 -6.6 81 81 SE 13 20 30.48 1032 10 16.0934 0 0
10:55 pm 22:55 Partly Cloudy 25 -3.7 20 -6.6 81 81 SE 13 20 30.48 1032 10 16.0934 0 0
11:15 pm 23:15 Partly Cloudy 25 -3.7 20 -6.5 81 81 SE 12 19 30.48 1032 10 16.0934 0 0
11:35 pm 23:35 Mostly Cloudy 26 -3.6 20 -6.5 81 81 SE 14 22 30.45 1031 10 16.0934 0 0
11:55 pm 23:55 Cloudy 25 -3.8 20 -6.7 81 81 SE 10 17 30.48 1032 10 16.0934 0 0

Powered by AerisWeather